Location: Doschendorf
(50.0069°N, 11.0602°E)
Time: 20:33:42
(UTC+00:00)

NOAA 12 - Pass Details

Date: 21 February 2020
Orbit: 795 x 815 km, 98.5° (Epoch: 09 April)

Event Time Altitude Azimuth Distance (km) Brightness Sun altitude
Rises 05:17:20 0° 20° (NNE) 3,355 7.5 -10.2°
Reaches altitude 10° 05:19:54 10° 29° (NNE) 2,419 6.9 -9.7°
Maximum altitude 05:24:48 36° 96° (E) 1,274 6.0 -9.0°
Drops below altitude 10° 05:29:40 10° 162° (SSE) 2,399 6.9 -8.2°
Sets 05:32:11 0° 171° (S) 3,323 7.5 -7.8°
